Regional Weather Roundup
Issued by NWS Charleston, WV

Home | Current Version | Previous Version | Graphics & Text | Print | Product List | Glossary On
Versions: 1 2 3 4 5 6 7 8 9 10 11 12 13 14 15 16 17 18 19 20 21 22 23 24 25 26 27
000
ASUS41 KRLX 260210
RWRRLX
West Virginia Regional Weather Roundup
National Weather Service Charleston WV
1000 PM EDT FRI MAY 25 2018

Note: "fair" indicates few or no clouds below 12,000 feet with no
significant weather and/or obstructions to visibility.

WVZ003-260300-
Northern Panhandle of West Virginia

CITY           SKY/WX    TMP DP  RH WIND       PRES   REMARKS
WHEELING       FAIR      75  62  64 CALM      29.90R
$$

WVZ009-260300-
Northwest West Virginia

CITY           SKY/WX    TMP DP  RH WIND       PRES   REMARKS
PARKERSBURG    FAIR      73  66  78 S3        29.91F
$$

WVZ006-260300-
Western West Virginia

CITY           SKY/WX    TMP DP  RH WIND       PRES   REMARKS
HUNTINGTON     FAIR      77  67  71 CALM      29.89S
$$

WVZ015-260300-
West Central West Virginia

CITY           SKY/WX    TMP DP  RH WIND       PRES   REMARKS
CHARLESTON     FAIR      74  69  85 SE3       29.91S
$$

WVZ022-031-260300-
North Central West Virginia

CITY           SKY/WX    TMP DP  RH WIND       PRES   REMARKS
CLARKSBURG     FAIR      74  65  73 CALM      29.92R
MORGANTOWN     FAIR      73  64  73 S3        29.92R
$$

WVZ025-035-042-045-260300-
Southern West Virginia

CITY           SKY/WX    TMP DP  RH WIND       PRES   REMARKS
BECKLEY        CLOUDY    72  61  68 S9        30.02R
LOGAN          CLOUDY    73  68  83 CALM      29.96R
BLUEFIELD      MOCLDY    69  62  78 S5        30.05S
LEWISBURG      FAIR      70  63  77 S5        30.03S
$$

WVZ047-260300-
Northern Mountains of West Virginia

CITY           SKY/WX    TMP DP  RH WIND       PRES   REMARKS
ELKINS         MOCLDY    68  63  84 CALM      29.99R
$$

WVZ052-260300-
Eastern Panhandle of West Virginia

CITY           SKY/WX    TMP DP  RH WIND       PRES   REMARKS
MARTINSBURG    FAIR      75  65  70 S6        29.88R
PETERSBURG     MOCLDY    73  66  79 S7        29.93R
$$




USA.gov is the U.S. government's official web portal to all federal, state and local government web resources and services.